Starlink 30904

operational
NORAD ID: 58364 Int'l Des: 2023-177 Owner: SPXS Country: US Constellation: starlink
LEOCIRCULAR

About Starlink 30904

Description loading...

Live Position

Loading 3D Globe...

Upcoming Passes

Altitude History

Altitude vs Time

uPlot chart will show altitude changes over time

Two-Line Element Set

1 58364U 23177P 25349.33301041 .00000035 00000-0 17670-4 0 9997
2 58364 43.0028 88.4783 0000960 275.3196 84.7537 15.02537630115543
Epoch: Dec 15, 2025 • Age: 28 hours

Current Status

Altitude 558.6 km
Velocity 7.58 km/s
Sub-Earth Point 5.29°N, 7.05°W
Launch Date Nov 18, 2023
Age 2 years
Type internet

Technical Details

Classification Payload
Mass 730.00 kg
Dry Mass 700.00 kg
Total Mass 730.00 kg
Length 0.30 m
Diameter 4.10 m
Span 29.00 m
Shape Box + pan
Manufacturer SPXS
Bus Type Starlink V2M
Phase Status In Orbit
Owner/State SPXS/US

Large Constellations

Loading constellations...